When you browse on this site, cookies collect data to enhance your experience and personalize the content and advertising you see.
Visit our Privacy Policy to learn more. By continuing to use the site, you agree to this use of cookies and data.
  • In Schweiz
  • Länderverzeichnis
  • Für 7 Tage
  • Wassertemperatur
  • Satellitenkarten
  • Wetterkarte
  • Widgets
  • user-avatar
    Anmelden

    Stündliche Wetter Belém

    Heute, 23 Januar, Mittwoch

    Zeit Temperatur Niederschläge Wind Luftdruck Luftfeuchtigkeit
    00:00 +26°C° 0.1 mm 2 m/S 759 mmHg 95%
    01:00 +26°C° 0.1 mm 1 m/S 759 mmHg 95%
    02:00 +26°C° 0.1 mm 1 m/S 759 mmHg 96%
    03:00 +25°C° 0.1 mm 1 m/S 758 mmHg 96%
    04:00 +25°C° 0.1 mm 1 m/S 758 mmHg 96%
    05:00 +25°C° 0.1 mm 1 m/S 758 mmHg 97%
    06:00 +25°C° 0.1 mm 1 m/S 758 mmHg 97%
    07:00 +26°C° 0.3 mm 1 m/S 759 mmHg 95%
    08:00 +27°C° 0.3 mm 1 m/S 759 mmHg 94%
    09:00 +28°C° 0.3 mm 1 m/S 760 mmHg 92%
    10:00 +29°C° 0.9 mm 1 m/S 759 mmHg 88%
    11:00 +30°C° 0.9 mm 1 m/S 759 mmHg 83%
    12:00 +30°C° 0.9 mm 1 m/S 759 mmHg 79%
    13:00 +30°C° 0.5 mm 1 m/S 758 mmHg 80%
    14:00 +30°C° 0.5 mm 1 m/S 758 mmHg 82%
    15:00 +30°C° 0.5 mm 2 m/S 757 mmHg 83%
    16:00 +29°C° 0.5 mm 2 m/S 757 mmHg 87%
    17:00 +28°C° 0.5 mm 2 m/S 757 mmHg 91%
    18:00 +28°C° 0.5 mm 2 m/S 757 mmHg 95%
    19:00 +27°C° 1.3 mm 2 m/S 757 mmHg 96%
    20:00 +26°C° 1.3 mm 2 m/S 758 mmHg 97%
    21:00 +26°C° 1.3 mm 2 m/S 758 mmHg 97%
    22:00 +26°C° 0.5 mm 2 m/S 758 mmHg 97%
    23:00 +26°C° 0.5 mm 1 m/S 759 mmHg 97%

    Morgen, 24 Januar, Donnerstag

    Zeit Temperatur Niederschläge Wind Luftdruck Luftfeuchtigkeit
    00:00 +25°C° 0.5 mm 1 m/S 759 mmHg 97%
    01:00 +25°C° 0.6 mm 1 m/S 758 mmHg 97%
    02:00 +25°C° 0.6 mm 1 m/S 758 mmHg 98%
    03:00 +25°C° 0.6 mm 1 m/S 757 mmHg 98%
    04:00 +25°C° 0.9 mm 1 m/S 757 mmHg 98%
    05:00 +23°C° 0.9 mm 0 m/S 757 mmHg 98%
    06:00 +23°C° 0.9 mm 0 m/S 757 mmHg 98%
    07:00 +24°C° 0.5 mm 0 m/S 758 mmHg 95%
    08:00 +25°C° 0.5 mm 0 m/S 759 mmHg 92%
    09:00 +26°C° 0.5 mm 0 m/S 759 mmHg 89%
    10:00 +27°C° 0.6 mm 0 m/S 759 mmHg 84%
    11:00 +30°C° 0.6 mm 1 m/S 759 mmHg 79%
    12:00 +31°C° 0.6 mm 1 m/S 759 mmHg 74%
    13:00 +31°C° 1.1 mm 1 m/S 758 mmHg 74%
    14:00 +31°C° 1.1 mm 1 m/S 757 mmHg 73%
    15:00 +31°C° 1.1 mm 1 m/S 756 mmHg 73%
    16:00 +30°C° 0.7 mm 1 m/S 756 mmHg 78%
    17:00 +29°C° 0.7 mm 2 m/S 756 mmHg 83%
    18:00 +28°C° 0.7 mm 2 m/S 756 mmHg 88%
    19:00 +27°C° 0 mm 2 m/S 757 mmHg 90%
    20:00 +26°C° 0 mm 1 m/S 758 mmHg 92%
    21:00 +26°C° 0 mm 1 m/S 759 mmHg 94%
    22:00 +26°C° 0 mm 1 m/S 759 mmHg 95%
    23:00 +25°C° 0 mm 1 m/S 759 mmHg 95%

    übermorgen, 25 Januar, Freitag

    Zeit Temperatur Niederschläge Wind Luftdruck Luftfeuchtigkeit
    00:00 +25°C° 0 mm 1 m/S 759 mmHg 96%
    01:00 +23°C° 0.3 mm 0 m/S 758 mmHg 97%
    02:00 +23°C° 0.3 mm 0 m/S 758 mmHg 98%
    03:00 +23°C° 0.3 mm 0 m/S 757 mmHg 98%
    04:00 +23°C° 0.6 mm 0 m/S 757 mmHg 98%
    05:00 +23°C° 0.6 mm 0 m/S 757 mmHg 98%
    06:00 +22°C° 0.6 mm 0 m/S 757 mmHg 98%
    07:00 +24°C° 0.3 mm 0 m/S 758 mmHg 96%
    08:00 +25°C° 0.3 mm 0 m/S 758 mmHg 93%
    09:00 +26°C° 0.3 mm 0 m/S 759 mmHg 91%
    10:00 +30°C° 0.1 mm 1 m/S 759 mmHg 79%
    11:00 +32°C° 0.1 mm 1 m/S 759 mmHg 68%
    12:00 +33°C° 0.1 mm 1 m/S 758 mmHg 57%
    13:00 +34°C° 0.4 mm 2 m/S 758 mmHg 65%
    14:00 +32°C° 0.4 mm 2 m/S 757 mmHg 73%
    15:00 +31°C° 0.4 mm 2 m/S 756 mmHg 81%
    16:00 +30°C° 0.6 mm 2 m/S 756 mmHg 85%
    17:00 +29°C° 0.6 mm 2 m/S 756 mmHg 89%
    18:00 +28°C° 0.6 mm 2 m/S 756 mmHg 93%
    19:00 +27°C° 0.6 mm 2 m/S 757 mmHg 95%
    20:00 +26°C° 0.6 mm 2 m/S 757 mmHg 96%
    21:00 +25°C° 0.6 mm 2 m/S 758 mmHg 97%
    22:00 +25°C° 1.6 mm 2 m/S 758 mmHg 97%
    23:00 +25°C° 1.6 mm 2 m/S 758 mmHg 97%

    26 Januar, Samstag

    Zeit Temperatur Niederschläge Wind Luftdruck Luftfeuchtigkeit
    00:00 +25°C° 1.6 mm 1 m/S 758 mmHg 98%
    01:00 +25°C° 0.9 mm 1 m/S 758 mmHg 98%
    02:00 +25°C° 0.9 mm 1 m/S 757 mmHg 98%
    03:00 +25°C° 0.9 mm 1 m/S 757 mmHg 98%
    04:00 +24°C° 0 mm 1 m/S 757 mmHg 98%
    05:00 +24°C° 0 mm 1 m/S 757 mmHg 98%
    06:00 +24°C° 0 mm 1 m/S 757 mmHg 98%
    07:00 +25°C° 0.2 mm 1 m/S 758 mmHg 95%
    08:00 +27°C° 0.2 mm 1 m/S 758 mmHg 92%
    09:00 +28°C° 0.2 mm 2 m/S 759 mmHg 89%
    10:00 +29°C° 0.2 mm 2 m/S 759 mmHg 79%
    11:00 +31°C° 0.2 mm 2 m/S 759 mmHg 69%
    12:00 +34°C° 0.2 mm 2 m/S 758 mmHg 60%
    13:00 +32°C° 1 mm 2 m/S 757 mmHg 70%
    14:00 +31°C° 1 mm 2 m/S 757 mmHg 80%
    15:00 +30°C° 1 mm 2 m/S 756 mmHg 90%
    16:00 +29°C° 1.5 mm 2 m/S 756 mmHg 91%
    17:00 +28°C° 1.5 mm 2 m/S 756 mmHg 93%
    18:00 +27°C° 1.5 mm 2 m/S 756 mmHg 95%
    19:00 +27°C° 0.7 mm 2 m/S 756 mmHg 96%
    20:00 +26°C° 0.7 mm 2 m/S 757 mmHg 97%
    21:00 +26°C° 0.7 mm 2 m/S 758 mmHg 97%
    22:00 +26°C° 0 mm 2 m/S 758 mmHg 97%
    23:00 +26°C° 0 mm 2 m/S 758 mmHg 97%

    27 Januar, Sonntag

    Zeit Temperatur Niederschläge Wind Luftdruck Luftfeuchtigkeit
    00:00 +26°C° 0 mm 2 m/S 758 mmHg 97%
    01:00 +25°C° 0 mm 2 m/S 758 mmHg 98%
    02:00 +25°C° 0 mm 1 m/S 757 mmHg 98%
    03:00 +25°C° 0 mm 1 m/S 757 mmHg 98%
    04:00 +25°C° 0 mm 1 m/S 757 mmHg 98%
    05:00 +25°C° 0 mm 1 m/S 757 mmHg 98%
    06:00 +25°C° 0 mm 1 m/S 757 mmHg 97%
    07:00 +26°C° 0 mm 1 m/S 758 mmHg 96%
    08:00 +26°C° 0 mm 1 m/S 758 mmHg 94%
    09:00 +27°C° 0 mm 2 m/S 759 mmHg 92%
    10:00 +29°C° 0 mm 2 m/S 759 mmHg 81%
    11:00 +31°C° 0 mm 2 m/S 758 mmHg 69%
    12:00 +34°C° 0 mm 2 m/S 758 mmHg 58%
    13:00 +34°C° 0.7 mm 2 m/S 757 mmHg 63%
    14:00 +32°C° 0.7 mm 2 m/S 757 mmHg 69%
    15:00 +31°C° 0.7 mm 2 m/S 756 mmHg 74%
    16:00 +31°C° 0.2 mm 2 m/S 756 mmHg 78%
    17:00 +30°C° 0.2 mm 3 m/S 756 mmHg 81%
    18:00 +29°C° 0.2 mm 3 m/S 756 mmHg 85%
    19:00 +28°C° 0.1 mm 3 m/S 756 mmHg 88%
    20:00 +27°C° 0.1 mm 3 m/S 757 mmHg 91%
    21:00 +26°C° 0.1 mm 3 m/S 758 mmHg 95%
    22:00 +26°C° 0 mm 3 m/S 758 mmHg 95%
    23:00 +26°C° 0 mm 2 m/S 758 mmHg 96%

    28 Januar, Montag

    Zeit Temperatur Niederschläge Wind Luftdruck Luftfeuchtigkeit
    00:00 +26°C° 0 mm 2 m/S 758 mmHg 96%
    01:00 +25°C° 0 mm 2 m/S 757 mmHg 96%
    02:00 +25°C° 0 mm 2 m/S 757 mmHg 97%
    03:00 +25°C° 0 mm 2 m/S 756 mmHg 97%
    04:00 +25°C° 0 mm 2 m/S 756 mmHg 97%
    05:00 +25°C° 0 mm 2 m/S 757 mmHg 98%
    06:00 +25°C° 0 mm 2 m/S 757 mmHg 98%
    07:00 +26°C° 0 mm 2 m/S 757 mmHg 94%
    08:00 +27°C° 0 mm 2 m/S 758 mmHg 90%
    09:00 +28°C° 0 mm 3 m/S 758 mmHg 87%
    10:00 +30°C° 0 mm 3 m/S 758 mmHg 78%
    11:00 +31°C° 0 mm 3 m/S 758 mmHg 69%
    12:00 +34°C° 0 mm 3 m/S 757 mmHg 60%
    13:00 +34°C° 0.3 mm 3 m/S 757 mmHg 62%
    14:00 +34°C° 0.3 mm 3 m/S 756 mmHg 65%
    15:00 +34°C° 0.3 mm 3 m/S 755 mmHg 67%
    16:00 +31°C° 0.8 mm 2 m/S 755 mmHg 76%
    17:00 +30°C° 0.8 mm 2 m/S 756 mmHg 85%
    18:00 +28°C° 0.8 mm 2 m/S 756 mmHg 94%
    19:00 +27°C° 0.1 mm 2 m/S 756 mmHg 95%
    20:00 +27°C° 0.1 mm 2 m/S 757 mmHg 95%
    21:00 +26°C° 0.1 mm 2 m/S 757 mmHg 96%
    22:00 +26°C° 0 mm 2 m/S 757 mmHg 96%
    23:00 +26°C° 0 mm 2 m/S 758 mmHg 97%
    Mehr zeigen